Location: Pasarilla del Rebollar
(40.6790°N, 5.0062°W)
Time: 05:51:39
(UTC+00:00)

Daily predictions for brighter satellites

Satellite Brightness Start Highest point End
(mag) Time Altitude Azimuth Time Altitude Azimuth Time Altitude Azimuth
Cosmos 1697 Rocket 4.2 00:00:19 10° NNW 00:03:24 32° N 00:03:24 32° N
ATLAS 2AS CENTAUR R/B 3.3 00:09:45 52° N 00:09:45 52° N 00:14:56 10° NNE
Cosmos 1980 Rocket 3.8 00:20:45 10° N 00:24:19 31° NNE 00:24:19 31° NNE
Cosmos 2082 Rocket 3.7 00:59:24 33° NE 00:59:24 33° NE 01:02:31 10° NNE
CZ-4C R/B 3.8 01:22:06 25° NNE 01:22:06 25° NNE 01:24:19 10° NNE
ACS3 Solar Sail 2.5 01:14:04 10° NNE 01:18:33 49° NE 01:18:33 49° NE
SL-16 R/B 4.0 01:18:40 10° N 01:23:20 26° NE 01:24:53 23° E
ATLAS 3B R/B 3.3 01:23:35 10° NW 01:29:24 53° NW 01:29:24 53° NW
USA 267 4.3 01:29:25 10° ENE 01:34:01 34° E 01:34:01 34° E
Cosmos 909 Rocket 4.5 01:37:59 57° N 01:37:59 57° N 01:43:12 10° NNE
Cosmos 1092 Rocket 4.5 01:44:08 10° N 01:48:44 53° NNW 01:48:44 53° NNW
IDEFIX/ARIANE 42P 3.4 01:53:37 10° NNE 01:57:22 48° NE 01:57:22 48° NE
Cosmos 1980 Rocket 4.4 02:05:01 10° NW 02:06:02 15° NW 02:06:02 15° NW
Cosmos 1763 Rocket 4.4 02:13:17 44° E 02:13:17 44° E 02:17:40 10° NNE
COSMOS 2406 3.6 02:14:30 56° NNW 02:14:30 56° NNW 02:19:20 10° NNE
ADEOS II 4.3 02:11:20 10° NE 02:14:40 17° E 02:16:28 14° ESE
ALOS 4.2 02:15:47 10° NE 02:19:15 21° E 02:19:31 21° E
MSX 3.9 02:14:39 10° N 02:19:47 68° NNW 02:19:47 68° NNW
CZ-2D R/B 3.6 02:18:55 10° NE 02:23:28 28° E 02:24:32 26° ESE
ADEOS Rocket 3.6 02:19:16 10° NNE 02:26:59 78° ESE 02:28:49 56° S
Cosmos 1375 Rocket 4.4 02:31:37 77° SSE 02:32:00 81° ESE 02:38:34 10° NNE
Cosmos 1503 Rocket 4.3 02:31:13 10° NNW 02:36:27 63° ENE 02:37:01 59° ESE
Cosmos 2360 Rocket 3.0 02:31:47 10° NNW 02:37:17 48° ENE 02:42:44 10° SE
Cosmos 2333 Rocket 2.1 02:32:55 10° NNW 02:38:38 83° ENE 02:39:00 78° SE
FENGYUN 3A 3.7 02:33:15 10° N 02:38:14 66° NW 02:38:14 66° NW
USA 281 3.0 02:38:17 70° SW 02:38:41 72° WSW 02:45:16 10° NNW
Cosmos 540 Rocket 3.5 02:41:19 73° ENE 02:41:19 73° ENE 02:46:13 10° NNE
Cosmos 2082 Rocket 3.9 02:41:13 21° NW 02:41:24 21° NW 02:45:38 10° N
Cosmos 2221 3.6 02:43:58 37° N 02:43:58 37° N 02:46:33 10° N
NPP 4.0 02:46:31 10° N 02:51:27 50° WNW 02:51:27 50° WNW
Meteor 2-9 Rocket 3.9 02:46:52 10° NNW 02:52:06 80° W 02:52:06 80° W
Cosmos 2278 3.5 02:46:31 10° NNW 02:52:15 84° WSW 02:52:57 70° S
Resurs 1-4 Rocket 2.5 02:47:02 10° NNE 02:52:17 58° ESE 02:53:20 49° SE
Cosmos 2322 Rocket 2.4 02:47:02 10° NNW 02:52:40 70° ENE 02:56:37 20° SE
Cosmos 1833 4.2 02:53:59 62° SSE 02:54:49 73° ESE 03:00:30 10° NNE
Cosmos 1777 Rocket 4.3 02:56:34 10° NNW 03:00:46 50° WNW 03:00:46 50° WNW
ACS3 Solar Sail 3.3 02:57:41 10° NNW 03:01:55 20° WNW 03:02:06 20° WNW
Meteor 1-19 Rocket 4.1 03:04:31 60° W 03:04:47 61° WNW 03:10:17 10° N
Intercosmos 24 4.4 02:58:38 10° N 03:05:08 79° W 03:05:41 69° SSW
SL-4 R/B 2.9 03:05:08 32° NNW 03:06:22 43° NNE 03:10:00 10° ESE
H-2A R/B 2.6 03:01:21 10° NNE 03:06:24 53° E 03:08:28 33° SSE
Cosmos 2219 Rocket 3.0 03:01:03 10° NNW 03:06:33 51° ENE 03:12:01 10° SE
CZ-3 Stage 3 3.4 03:05:04 40° SSW 03:06:49 46° SSE 03:24:53 10° E
SL-16 R/B 2.6 03:02:14 10° NW 03:06:38 43° WNW 03:06:38 43° WNW
USA 290 4.0 03:10:18 29° N 03:10:18 29° N 03:12:00 10° NNE
CZ-4C R/B 4.1 03:06:59 11° NW 03:08:51 13° NNW 03:11:24 10° N
Meteor 1-11 Rocket 3.7 03:03:25 10° N 03:09:20 88° W 03:11:37 39° S
Meteor 1-10 Rocket 4.2 03:11:32 56° WSW 03:12:26 65° WNW 03:18:11 10° N
NOAA 11 4.3 03:07:55 10° N 03:13:11 54° WNW 03:13:50 51° W
Meteor 1-14 Rocket 4.5 03:09:43 10° NNW 03:15:07 46° W 03:15:07 46° W
USA 267 3.5 03:12:11 10° NE 03:18:39 62° NW 03:21:22 36° W
Gbstr 26 Del rocket 3.6 03:19:26 18° NW 03:21:54 45° NNE 03:25:32 10° ESE
Cosmos 2266 Rocket 4.2 03:16:56 10° NNW 03:22:43 47° W 03:23:39 43° WSW
DMSP B5D2-2 4.0 03:26:09 47° SSW 03:27:18 59° W 03:32:26 10° NNW
ISS -3.5 03:29:12 64° E 03:29:12 64° E 03:32:15 10° ENE
Cosmos 2333 4.1 03:27:38 10° NNW 03:33:18 74° WSW 03:38:59 10° SSE
BREEZE-M DEB (TANK) 2.9 03:31:26 33° SW 03:34:48 87° SSE 03:38:18 10° ENE
Meteor 2-20 Rocket 4.5 03:33:07 37° SW 03:35:29 60° W 03:41:25 10° N
Meteor 2-4 Rocket 3.5 03:34:19 32° SSW 03:36:53 86° W 03:42:15 10° N
Cosmos 1461 2.4 03:37:00 67° SSW 03:37:28 85° ESE 03:41:13 10° NNE
IDEFIX/ARIANE 42P 4.4 03:34:46 10° NNW 03:37:37 15° WNW 03:38:03 15° WNW
Cosmos 1655 Rocket 3.9 03:32:09 10° N 03:38:22 74° W 03:43:31 15° S
Envisat 3.4 03:35:29 10° N 03:40:16 44° WNW 03:41:31 37° WSW
H-2A R/B 2.5 03:41:22 46° WNW 03:41:22 46° WNW 03:44:24 10° NNW
Cosmos 2084 Rocket 3.2 03:37:48 10° NW 03:42:02 84° SW 03:46:17 10° SSE
Cosmos 1066 Rocket 4.2 03:38:36 20° S 03:42:22 74° E 03:47:43 10° NNE
Aureole 1 Rocket 3.2 03:38:16 10° NNW 03:42:42 85° WSW 03:48:18 10° SSE
Iridium 4 Rocket 4.0 03:42:32 33° W 03:42:49 34° W 03:47:18 10° NNW
NOSS 3-4 (A) 4.0 03:37:11 10° NNW 03:44:10 79° NE 03:52:21 10° SE
NOSS 3-4 (C) 4.1 03:37:44 10° NNW 03:44:44 78° NE 03:52:55 10° SE
AQUA 4.4 03:42:58 10° NNE 03:47:33 53° E 03:51:43 12° S
Cosmos 1842 Rocket 3.4 03:46:03 30° S 03:48:09 90° E 03:52:29 10° N
Meteor 1-27 Rocket 4.1 03:45:55 32° SW 03:48:24 51° WNW 03:54:10 10° N
Cosmos 1238 Rocket 3.6 03:50:21 24° NW 03:50:21 24° NW 03:52:02 10° NNW
BREEZE-M DEB (TANK) 3.4 03:42:57 10° WNW 03:52:36 83° SW 03:55:45 10° SE
BREEZE-M DEB (TANK) 3.5 03:49:45 10° NW 03:53:14 71° NNE 04:04:32 10° ESE
USA 234 3.5 03:46:47 10° ESE 03:53:17 74° NE 03:59:49 10° NW
Cosmos 990 Rocket 4.5 03:49:23 10° NW 03:54:03 36° WSW 03:55:42 29° SW
Cosmos 2297 Rocket 3.9 03:49:39 10° SSE 03:54:28 30° ESE 03:59:19 10° NE
ADEOS II 2.2 03:49:25 10° N 03:54:33 58° WNW 03:57:16 27° SW
ALOS 2.9 03:52:05 10° N 03:56:15 36° WNW 03:57:33 30° WSW
Cosmos 841 Rocket 3.4 03:58:30 24° SSW 04:01:39 76° WNW 04:06:51 10° NNE
SL-16 R/B 2.9 03:56:53 10° SSE 04:03:03 68° ENE 04:09:17 10° N
CZ-2D R/B 2.8 03:58:40 10° N 04:03:26 36° WNW 04:05:48 24° WSW
Sich 1 3.2 04:00:20 10° N 04:04:28 68° E 04:08:34 10° SSE
Okean 3 Rocket 3.9 04:01:04 10° N 04:05:31 68° E 04:09:58 10° SSE
COSMOS 2428 3.7 04:00:19 10° NNW 04:05:52 50° ENE 04:11:22 10° SE
CZ-3 R/B 3.7 03:39:06 12° WSW 04:07:07 50° SSW 04:15:52 10° ESE
Cosmos 1898 Rocket 3.4 04:07:24 10° NNW 04:12:35 82° WSW 04:17:44 10° SSE
Cosmos 1937 Rocket 3.6 04:11:50 10° NNW 04:17:02 79° ENE 04:22:10 10° SSE
DELTA 2 R/B (1) 4.0 04:13:49 21° SW 04:17:22 51° SSE 04:22:43 10° E
USA 276 3.1 04:19:13 13° NNW 04:20:16 22° NNE 04:21:46 10° E
Cosmos 2360 Rocket 3.2 04:16:29 10° NW 04:20:52 24° W 04:24:35 13° SSW
Cosmos 2333 Rocket 4.0 04:19:46 10° WNW 04:20:55 12° W 04:20:55 12° W
Meteor 1-18 Rocket 4.2 04:17:04 11° SSW 04:22:28 64° WNW 04:27:59 10° N
H-2A R/B 1.8 04:19:37 10° N 04:23:38 80° WNW 04:27:34 10° SSW
EP 1 4.4 04:23:45 10° NW 04:26:22 56° WSW 04:29:28 10° SSE
Meteor 2-10 Rocket 3.6 04:22:25 10° NNW 04:27:27 58° W 04:32:40 10° S
In-Cosmos 22 4.0 04:22:41 10° SSW 04:27:57 77° W 04:33:19 10° N
Cosmos 1553 Rocket 4.2 04:24:06 10° SSW 04:30:02 50° WNW 04:36:07 10° N
Resurs 1-4 Rocket 3.7 04:27:57 10° NNW 04:31:32 19° WNW 04:34:22 13° W
Cosmos 2322 Rocket 3.7 04:32:48 10° WNW 04:36:01 16° W 04:38:12 13° WSW
CZ-2C R/B 2.5 04:33:03 10° NNE 04:37:54 75° ESE 04:42:33 10° S
SL-14 R/B 3.8 04:38:19 10° SSW 04:41:54 38° WNW 04:45:34 10° N
Cosmos 1709 Rocket 4.2 04:37:20 10° N 04:43:28 74° E 04:49:34 10° SSE
SL-4 R/B 2.6 04:40:19 10° WNW 04:43:38 28° SW 04:46:52 10° SSE
RESURS DK-1 4.3 04:41:16 10° N 04:44:53 32° ENE 04:48:28 10° SE
H-2A R/B 3.5 04:41:38 10° NNW 04:45:17 20° WNW 04:48:58 10° WSW
BREEZE-M DEB (TANK) 2.6 04:38:28 10° WNW 04:45:32 83° NNE 04:48:16 10° ESE
SL-08 RB Rocket 3.8 04:44:21 10° N 04:48:40 56° WNW 04:53:01 10° SSW
Cosmos 2219 Rocket 3.3 04:45:50 10° NW 04:50:03 22° W 04:54:17 10° SSW
Cosmos 2237 Rocket 3.4 04:45:12 10° NNW 04:50:43 48° ENE 04:56:10 10° SE
Cosmos 1939 Rocket 3.3 04:47:58 10° NNE 04:51:34 56° E 04:55:09 10° S
Cosmos 1408 Rocket 3.6 04:50:41 10° NNW 04:54:51 54° W 04:59:00 10° S
USA 307 4.2 04:53:18 10° S 04:55:24 22° ESE 04:58:05 10° ENE
ARGOS 3.9 04:52:39 10° N 04:57:28 34° WNW 05:02:15 10° SW
USA 81 4.4 04:52:40 10° N 04:57:57 75° E 05:03:11 10° S
Cosmos 2227 Rocket 3.4 04:56:27 10° S 05:01:46 44° ESE 05:07:08 10° NE
Cosmos 2315 Rocket 4.1 04:56:35 10° S 05:02:55 78° W 05:09:20 10° N
Cosmos 1745 Rocket 4.1 04:57:29 10° NNW 05:03:30 57° W 05:09:27 10° S
SL-24 R/B 4.2 05:02:06 10° N 05:05:58 44° WNW 05:09:31 10° SW
